Find OneWeb SL0156

NORAD ID: 48052 Int'l Des: 2021-025 Owner: ONEWEBN Country: UK Constellation: oneweb operational
LEOCIRCULARPOLARONEWEB_TYPE

現在のビュー

3D地球を読み込み中...

About OneWeb SL0156

OneWeb SL0156 (NORAD 48052) is a oneweb constellation satellite launched Mar 25, 2021 by ONEWEBN of UK. It operates in LEO, CIRCULAR, POLAR, ONEWEB_TYPE orbit with a mass of 148.00 kg.

OneWeb SL0156について

説明を読み込み中...

次回通過

Passes for default location (London). Set your location on the main map for personalized predictions.

高度履歴

Loading altitude history...

軌道要素

1 48052U 21025L 26171.39379491 .00000347 00000-0 91423-3 0 9997
2 48052 87.8966 319.5800 0001979 98.1777 261.9577 13.13470476253997
Epoch: Jun 20, 2026 • Age: 26 hours

現在のステータス

高度 1219.7 km
速度 7.25 km/s
衛星直下点 65.19°N, 50.71°E
打ち上げ日 Mar 25, 2021
運用期間 5.2 years
タイプ internet

技術仕様

分類 Payload
質量 148.00 kg
乾燥質量 140.00 kg
総質量 148.00 kg
長さ 1.30 m
直径 1.00 m
スパン 5.00 m
形状 Trapezoid+2 pan
製造者 ONEWUS
バスタイプ ARROW
フェーズステータス In Orbit
所有者/国 ONEWEBN/UK

Most Searched